Concordia, KS

7:54 PM CDT on October 20, 2019 (GMT -0500)
Blosser Municipal

Weather History for KCNK - June, 2019

Change the Weather History Date:

Tuesday, June 4, 2019

  Actual Average Record
Temperature  
Mean Temperature 80 °F 70 °F  
Max Temperature 91 °F 81 °F 99 °F (1933)
Min Temperature 68 °F 58 °F 43 °F (1951)
Degree Days  
Heating Degree Days 0 1  
Month to date heating degree days 0 4  
Since 1 June heating degree days 0 4  
Since 1 July heating degree days 5821 5399  
Cooling Degree Days 15 6  
Month to date cooling degree days 43 21  
Year to date cooling degree days 143 110  
Since 1 June cooling degree days 43 21  
Growing Degree Days 30 (Base 50)    
Moisture  
Dew Point 64 °F    
Average Humidity 61    
Maximum Humidity 84    
Minimum Humidity 38    
Precipitation  
Precipitation 0.01 in 0.13 in 2.72 in (1964)
Month to date precipitation 0.01 0.54  
Year to date precipitation 14.60 10.53  
Snow  
Snow 0.00 in 0.00 in T in (1955)
Month to date snowfall 0.0 0.0  
Year to date snowfall 32.3 13.7  
Since 1 July snowfall 48.2 20.2  
Snow Depth 0.00 in    
Sea Level Pressure  
Sea Level Pressure 29.78 in    
Wind  
Wind Speed 11 mph (SW)    
Max Wind Speed 21 mph    
Max Gust Speed 31 mph    
Visibility 10 miles    
Events Rain , Thunderstorm    
T = Trace of Precipitation, MM = Missing Value Source: NWS Daily Summary

Daily Weather History Graph

Daily Weather History Graph

Search for Another Location

Airport or City:

Astronomy

Jun. 04, 2019 Rise Set
Actual Time 6:04 AM CDT 8:53 PM CDT
Civil Twilight 5:32 AM CDT 9:26 PM CDT
Nautical Twilight 4:51 AM CDT 10:06 PM CDT
Astronomical Twilight 4:05 AM CDT 10:52 PM CDT
Moon 7:14 AM CDT (6/4) 10:23 PM CDT (6/4)
Length of Visible Light 15h 53m
Length of Day
14h 49m
New Moon, 2% of the Moon is Illuminated
Jun 4
New Moon
Jun 10
First Quarter
Jun 17
Full
Jun 25
Last Quarter
Jul 2
New

Hourly Weather History & Observations

Time (CDT) Temp. Heat Index Dew Point Humidity Pressure Visibility Wind Dir Wind Speed Gust Speed Precip Events Conditions
12:55 AM 75.9 °F - 66.9 °F 74% 29.81 in 10.0 mi South 18.4 mph 26.5 mph N/A   Mostly Cloudy
1:55 AM 75.9 °F - 69.1 °F 79% 29.79 in 10.0 mi South 17.3 mph - N/A   Clear
2:25 AM 75.9 °F - 68.0 °F 76% 29.86 in 10.0 mi West 12.7 mph - N/A   Mostly Cloudy
2:41 AM 73.0 °F - 63.0 °F 71% 29.87 in 10.0 mi WNW 16.1 mph 28.8 mph 0.00 in Rain , Thunderstorm Light Rain
2:55 AM 71.1 °F - 63.0 °F 75% 29.84 in 10.0 mi West 11.5 mph 24.2 mph 0.00 in Rain , Thunderstorm Light Rain
3:17 AM 70.0 °F - 63.0 °F 78% 29.87 in 10.0 mi NW 11.5 mph - 0.00 in Rain Light Rain
3:25 AM 70.0 °F - 62.1 °F 76% 29.85 in 10.0 mi East 8.1 mph - 0.01 in Rain Light Rain
3:55 AM 70.0 °F - 63.0 °F 78% 29.78 in 10.0 mi West 8.1 mph - 0.01 in Rain Light Rain
4:55 AM 68.0 °F - 63.0 °F 84% 29.75 in 10.0 mi South 12.7 mph - 0.00 in   Clear
6:55 AM 72.0 °F - 66.0 °F 81% 29.78 in 10.0 mi SW 16.1 mph 27.6 mph N/A   Clear
7:55 AM 71.1 °F - 62.1 °F 73% 29.81 in 10.0 mi WSW 12.7 mph 23.0 mph N/A   Clear
8:55 AM 72.0 °F - 62.1 °F 71% 29.82 in 10.0 mi WSW 11.5 mph - N/A   Clear
9:55 AM 75.9 °F - 63.0 °F 64% 29.82 in 10.0 mi West 16.1 mph 23.0 mph N/A   Clear
10:55 AM 79.0 °F - 63.0 °F 58% 29.80 in 10.0 mi West 11.5 mph - N/A   Clear
11:55 AM 81.0 °F 82.2 °F 63.0 °F 54% 29.80 in 10.0 mi West 9.2 mph - N/A   Clear
12:55 PM 82.9 °F 84.0 °F 63.0 °F 51% 29.78 in 10.0 mi West 8.1 mph - N/A   Clear
1:55 PM 84.9 °F 86.6 °F 64.9 °F 51% 29.79 in 10.0 mi SW 9.2 mph - N/A   Clear
2:55 PM 88.0 °F 88.4 °F 62.1 °F 42% 29.77 in 10.0 mi SW 9.2 mph - N/A   Clear
3:55 PM 89.1 °F 89.3 °F 62.1 °F 40% 29.75 in 10.0 mi WSW 10.4 mph - N/A   Clear
4:55 PM 90.0 °F 90.3 °F 62.1 °F 39% 29.73 in 10.0 mi SSW 10.4 mph - N/A   Clear
5:55 PM 90.0 °F 90.0 °F 61.0 °F 38% 29.71 in 10.0 mi WSW 9.2 mph - N/A   Clear
6:55 PM 89.1 °F 89.3 °F 62.1 °F 40% 29.70 in 10.0 mi SW 6.9 mph - N/A   Clear
7:55 PM 86.0 °F 88.2 °F 66.0 °F 51% 29.70 in 10.0 mi SSW 5.8 mph - N/A   Clear
8:55 PM 80.1 °F 82.1 °F 66.0 °F 62% 29.71 in 10.0 mi SW 8.1 mph - N/A   Clear
9:55 PM 77.0 °F - 64.9 °F 66% 29.72 in 10.0 mi SSW 8.1 mph - N/A   Clear
10:55 PM 77.0 °F - 63.0 °F 62% 29.73 in 10.0 mi SW 6.9 mph - N/A   Clear
11:55 PM 78.1 °F - 63.0 °F 60% 29.74 in 10.0 mi SW 9.2 mph - N/A   Clear